www.pogodaiklimat.ru

Погода и климат >> Архив погоды >> Пакистан >> Мултан


ПОГОДА в Мултане

  • Прогноз погоды в Мултане
  • Монитор погоды в Мултане

АРХИВ ПОГОДЫ в Мултане

Время (UTC), дата Ветер
(напр.,м/с)
 
Видим.   Явления Облачность Т
(С)
Тd
(С)
f
(%)
Тe
(С)
Тes
(С)
Комфортность P
(гПа)
Po
(гПа)
Тmin
(С)
Tmax
(С)
R
(мм)
R24
(мм)
S
(см)
03 20.05 СВ 3 4000 м дым 8/4 1200 м
[Sc Ac trans]
+26.0 +16.4 55 +29 +31 душно 1010.9 996.5 +24.8
06 20.05 СВ 3 4000 м мгла 1/0
[Ac trans]
+31.5 +15.5 38 +34 +49 душно 1011.0 996.7
09 20.05 СВ 1 4000 м мгла 1/0
[Ac trans]
+36.0 +13.3 26 +36 +56 опасность
солнечного
удара
1008.7 1000.0
12 20.05 штиль 0 4000 м мгла ясно +37.0 +14.9 27 +38 +44 душно 1006.6 992.3 +37.5
15 20.05 штиль 0 4000 м мгла 6/3 1200 м
[Sc Ac As]
+32.5 +17.9 42 +37 +37 очень
душно
1007.2 993.4
18 20.05 штиль 0 4000 м мгла 5/0
[Ac trans]
+30.5 +18.2 48 +35 +35 очень
душно
1007.5 993.3
21 20.05 штиль 0 4000 м мгла 8/3 1200 м
[Sc Ac As]
+28.5 +19.4 58 +34 +34 очень
душно
1007.0 1000.0
00 21.05 СВ 2 4000 м дым 4/0
[Ac trans]
+28.0 +19.6 60 +34 +34 очень
душно
1006.8 992.5
03 21.05 штиль 0 4000 м дым 3/0
[Ci fib]
+29.5 +17.9 50 +34 +42 очень
душно
1008.2 993.9 +25.7
06 21.05 ЮВ 2 4000 м мгла ясно +36.0 +15.6 30 +38 +58 опасность
солнечного
удара
1008.2 993.9
09 21.05 ЮЗ 3 4000 м мгла 4/0
[Ci fib]
+39.0 +15.7 25 +40 +55 опасность
солнечного
удара
1006.9 1000.0
12 21.05 З 4 4000 м мгла 8/3 1200 м
[Sc Ac As]
+38.0 +16.4 28 +40 +41 очень
душно
1004.5 990.3 +39.4
15 21.05 З 4 2000 м пыльный позёмок 9/3 1200 м
[Sc Ac As]
+34.5 +15.6 32 +36 +36 душно 1005.2 1000.0
18 21.05 штиль 0 4000 м мгла 5/0 1000 м
[Ac trans]
+31.0 +14.8 37 +33 +33 душно 1005.8 991.6
00 22.05 штиль 0 4000 м мгла 4/3 1200 м
[Sc]
+28.5 +16.6 49 +32 +32 душно 1004.7 990.5
03 22.05 З 2 4000 м мгла 5/0
[Ac trans]
+31.0 +16.9 43 +35 +39 очень
душно
1004.9 990.7 +27.5
06 22.05 ЮВ 2 4000 м мгла 6/0
[Ac trans Ci fib]
+34.5 +17.6 37 +38 +54 опасность
солнечного
удара
1005.8 991.6
09 22.05 ЮЗ 3 4000 м мгла 3/0
[Ac trans]
+39.0 +15.7 25 +40 +53 опасность
солнечного
удара
1003.7 1000.0
12 22.05 ЮЗ 6 4000 м мгла 4/0
[Ac trans Ci fib]
+39.0 +14.6 24 +40 +41 очень
душно
1001.5 987.3 +39.6
15 22.05 СЗ 5 500 м пыльная буря {гроза} 9/6 900 м
[Cb cap Ac trans]
+32.5 +16.9 39 +36 +36 очень
душно
1004.3 1000.0
18 22.05 СЗ 13 4000 м гроза, ливневой дождь {морось} 10/6 900 м
[Cb cap As op]
+29.0 +17.2 49 +33 +33 очень
душно
1005.3 991.1 0.0
21 22.05 СЗ 2 4000 м в посл. час гроза {морось} 9/5 900 м
[Cb cap Ac As]
+28.0 +16.9 51 +32 +32 душно 1002.0 1000.0 0.0
00 23.05 СВ 2 4000 м дым {гроза, морось} 9/5 1200 м
[Sc Ac As]
+28.0 +16.9 51 +32 +32 душно 1002.5 988.3
03 23.05 З 2 2000 м дым 8/4 1200 м
[Sc Ac As]
+29.0 +19.1 55 +34 +37 очень
душно
1004.7 990.5 +27.5
06 23.05 СВ 2 4000 м мгла 6/3 1200 м
[Sc diur, vesp Ac As]
+34.0 +15.9 34 +36 +46 душно 1005.0 990.8
09 23.05 СЗ 2 4000 м мгла 5/0
[Ac trans]
+38.0 +15.3 26 +39 +53 опасность
солнечного
удара
1003.6 1000.0
12 23.05 Ю 2 4000 м мгла 3/0
[Ac trans]
+37.0 +16.0 29 +39 +42 очень
душно
1001.5 987.3 +38.2
15 23.05 штиль 0 4000 м мгла 8/0
[Ac As]
+35.0 +17.3 35 +38 +38 очень
душно
1002.2 1000.0
18 23.05 0 гроза, ливневой дождь {морось} н/о +17.9 1004.8 990.6 1
21 23.05 штиль 0 4000 м дым {гроза} ясно +23.5 +19.6 79 +29 +29 душно 1004.0 989.9 0.0
00 24.05 штиль 0 4000 м дым 4/0
[Ac trans]
+23.0 +19.1 79 +29 +29 очень
душно
1005.4 991.2
03 24.05 штиль 0 4000 м дым ясно +26.0 +19.9 69 +32 +41 очень
душно
1007.0 992.8 +22.5
06 24.05 С 2 4000 м дым ясно +30.0 +20.3 56 +37 +56 опасность
солнечного
удара
1007.7 993.4
09 24.05 СЗ 1 4000 м мгла ясно +33.0 +18.5 42 +38 +59 опасность
солнечного
удара
1006.0 1000.0
12 24.05 СЗ 2 4000 м мгла ясно +35.0 +17.3 35 +38 +43 очень
душно
1004.5 990.3 +35.4
15 24.05 штиль 0 4000 м зарница 8/8 900 м
[Cb calv]
+33.0 +17.6 40 +37 +37 очень
душно
1004.6 1000.0
18 24.05 штиль 0 4000 м дым 4/0
[Ac trans]
+30.5 +20.9 57 +38 +38 очень
душно
1006.1 991.9
21 24.05 СВ 2 4000 м дым 3/0
[Ac trans]
+28.5 +20.2 61 +35 +35 очень
душно
1005.4 1000.0
00 25.05 С 3 4000 м дым 1/0
[Ac trans]
+27.0 +21.0 70 +34 +34 очень
душно
1005.7 991.5
03 25.05 С 2 4000 м дым ясно +26.0 +17.3 59 +30 +37 душно 1008.4 994.1 +23.5
06 25.05 штиль 0 4000 м мгла ясно +31.0 +16.9 43 +35 +61 опасность
солнечного
удара
1007.9 993.6
09 25.05 ЮЗ 2 4000 м мгла ясно +34.5 +18.0 38 +39 +57 опасность
солнечного
удара
1005.9 1000.0
12 25.05 ЮЗ 2 4000 м мгла ясно +36.0 +18.7 36 +40 +45 очень
душно
1003.8 989.6 +36.3
15 25.05 штиль 0 4000 м мгла ясно +34.0 +18.0 39 +38 +38 очень
душно
1003.6 1000.0
18 25.05 штиль 0 4000 м мгла ясно +31.5 +18.5 46 +36 +36 очень
душно
1003.3 989.1
21 25.05 ЮВ 1 4000 м дым ясно +29.5 +18.8 53 +35 +35 очень
душно
1001.7 1000.0
00 26.05 штиль 0 4000 м дым ясно +27.5 +19.9 63 +33 +33 очень
душно
1002.2 988.0
03 26.05 штиль 0 4000 м дым ясно +29.5 +20.5 58 +36 +45 очень
душно
1004.8 990.6 +25.1
06 26.05 ЮВ 4 4000 м мгла ясно +35.5 +18.0 36 +39 +53 опасность
солнечного
удара
1004.5 990.3
09 26.05 Ю 2 4000 м мгла ясно +38.0 +16.4 28 +40 +58 опасность
солнечного
удара
1003.1 1000.0
12 26.05 Ю 3 4000 м мгла ясно +39.0 +15.7 25 +40 +44 очень
душно
1001.5 987.3 +39.4
15 26.05 штиль 0 4000 м мгла ясно +36.0 +17.7 34 +39 +39 очень
душно
1002.1 1000.0
18 26.05 В 1 4000 м мгла ясно +34.0 +16.9 36 +37 +37 очень
душно
1003.0 988.8
21 26.05 штиль 0 4000 м мгла ясно +31.5 +14.5 36 +33 +33 жарко 1002.3 988.6
00 27.05 штиль 0 4000 м дым ясно +29.5 +17.9 50 +34 +34 очень
душно
1003.1 988.9

 

Местоположение метеостанции Мултан (Пакистан): широта 30.20 долгота 71.43 высота над уровнем моря 123 м.

В архиве по умолчанию представлена погода в Мултане за последнюю неделю. Архивные данные за месяц целиком и за предыдущие месяцы, начиная с января 2011 года, Вы можете получить, выбрав интересующий диапазон дат из раскрывающегося списка и нажав кнопку "Ввод!".


*Определитесь, кто Вы:
робот инопланетянин человек

Внимание! Время в таблицах - всемирное. Для получения местного времени необходимо прибавить поправку, которая равна 5 ч.

Смотрите также архив погоды в соседних городах и на ближайших метеорологических станциях:

Погода в Ханевале (Пакистан) (47 км)
Погода в Кот Адду (Пакистан) (54 км)
Погода в Дера Гази Хан (Пакистан) (79 км)
Погода в Бахавалпуре (Пакистан) (95 км)
Погода а Бахавалпур аэропорту (Пакистан) (95 км)
Погода на Авиабазе Raifiqui (Пакистан) (98 км)
Погода в Леяхе (Пакистан) (101 км)
Погода в Тоба Тек Сингх (Пакистан) (132 км)
Погода в Джанге (Пакистан) (146 км)
Погода в Сахивале (Пакистан) (161 км)

Пояснения к столбцам:

Ветер - указаны скорость ветра в м/с - средняя за 10 мин, порывы в срок и между сроками (в фигурных скобках) и направление, откуда дует ветер: С - северный, СВ - северо-восточный, В - восточный, ЮВ - юго-восточный, Ю - южный, ЮЗ - юго-западный, З - западный, СЗ - северо-западный.
Видимость - горизонтальная дальность видимости в метрах или километрах. При видимости от 1 до 10 км при отсутствии осадков обычно наблюдается дымка, при ухудшении видимости до 1 км и менее - туман. В сухую погоду видимость может ухудшаться дымом, пылью или мглою.
Явления - указаны атмосферные явления, наблюдавшиеся в срок или в последний час перед сроком; фигурными скобками обозначены явления, наблюдавшиеся между сроками (за 1-3 часа до срока); квадратными скобками обозначены град или гололедные отложения с указанием их диаметра в мм.
Облачность - указаны через наклонную черту общая и нижняя облачность в баллах и высота нижней границы облаков в метрах; квадратными скобками обозначены формы облаков: Ci - перистые, Cs - перисто-слоистые, Cc - перисто-кучевые, Ac - высококучевые, As - высокослоистые, Sc - слоисто-кучевые, Ns - слоисто-дождевые, Cu - кучевые, Cb - кучево-дождевые. Подробнее классификацию облаков см. в Атласе облаков (PDF).
T - Температура воздуха - температура, измеренная на высоте 2 м над землей.
Td - Температура точки росы - температура, при понижении до которой содержащийся в воздухе водяной пар достигнет насыщения.
f - Относительная влажность воздуха - влажноcть воздуха, измеренная на высоте 2 м над землей.
Te - Эффективная температура - температура, которую ощущает одетый по сезону человек в тени. Характеристика душности погоды. При расчете учитывается влияние влажности воздуха и скорости ветра на теплоощущения человека.
Tes - Эффективная температура на солнце - температура, которую ощущает человек, с поправкой на солнечный нагрев. Характеристика знойности погоды. Зависит от высоты солнца над горизонтом, облачности и скорости ветра. Ночью, в пасмурную погоду, а также при ветре 12 м/с и более поправка равна нулю.
P - Атмосферное давление - приведенное к уровню моря атмосферное давление.
Po - Атмосферное давление - измеренное на уровне метеостанции атмосферное давление.
Tmin - Минимальная температура - минимум температуры воздуха на высоте 2 м над землей.
Tmax - Максимальная температура - максимум температуры воздуха на высоте 2 м над землей.
R - Количество осадков - Количество выпавших осадков за период времени, мм. При наведении курсора мыши на число - период времени, за который выпало указанное количество осадков.
R24 - Количество осадков - Количество выпавших осадков за 24 часа, мм.
S - Снежный покров - Высота снежного покрова, см. При наведении курсора мыши на число - состояние снежного покрова и степень покрытия местности в баллах.